Find Starlink 5698

NORAD ID: 55623 Int'l Des: 2023-020 Owner: SPXS Country: US Constellation: starlink operational
LEOCIRCULAR

現在のビュー

3D地球を読み込み中...

Starlink 5698について

説明を読み込み中...

次回通過

Passes for default location (London). Set your location on the main map for personalized predictions.

高度履歴

Loading altitude history...

軌道要素

1 55623U 23020BG 26150.16668980 .00036224 00000-0 13202-2 0 9993
2 55623 43.0015 254.1366 0001572 264.9460 308.4481 15.27560770 5631
Epoch: May 30, 2026 • Age: 9 hours

現在のステータス

高度 486.9 km
速度 7.63 km/s
衛星直下点 41.82°N, 82.6°W
打ち上げ日 Feb 12, 2023
運用期間 3.2 years
タイプ internet

技術仕様

分類 Payload
質量 305.00 kg
乾燥質量 290.00 kg
総質量 305.00 kg
長さ 0.20 m
直径 2.80 m
スパン 9.00 m
形状 Box + pan
製造者 SPXS
バスタイプ Starlink
フェーズステータス In Orbit
所有者/国 SPXS/US

Most Searched